Regional Weather Roundup
Issued by NWS Upton, NY

Current Version | Previous Version | Graphics & Text | Print | Product List | Glossary Off
Versions: 1 2 3 4 5 6 7 8 9 10 11 12 13 14 15 16 17 18 19 20 21 22 23 24 25 26 27 28 29 30 31 32 33 34 35 36 37 38 39 40 41 42 43 44 45 46 47 48 49 50

000
ASUS41 KOKX 252105
RWROKX

REGIONAL WEATHER ROUNDUP
NATIONAL WEATHER SERVICE NEW YORK NY
500 PM EDT FRI JUL 25 2014

NOTE: "FAIR" INDICATES FEW OR NO CLOUDS BELOW 12,000 FEET WITH NO
SIGNIFICANT WEATHER AND/OR OBSTRUCTIONS TO VISIBILITY.

NYZ071-072-176-178-NJZ106-104-252200-
NEW YORK CITY METRO AREA


CITY           SKY/WX    TMP DP  RH WIND       PRES   REMARKS
CENTRAL PARK     N/A     79  55  44 MISG        N/A
LAGUARDIA APRT MOSUNNY   82  52  35 E8G17     29.95F
KENNEDY INTL   MOSUNNY   81  57  43 S15       29.97F
NEWARK/LIBERTY MOSUNNY   83  53  35 W8        29.95F
BRNX BOT. GARD   N/A     81  54  39 E6        29.98F
TETERBORO      SUNNY     85  52  32 CALM      29.94F
$$

NYZ177-179-078>081-252200-
LONG ISLAND NEW YORK

CITY           SKY/WX    TMP DP  RH WIND       PRES   REMARKS
FARMINGDALE    SUNNY     78  57  48 S8        29.97F
ISLIP          MOSUNNY   81  56  42 SW7       29.96F
SHIRLEY        SUNNY     78  58  49 SW10      29.98F
WESTHAMPTON    MOSUNNY   78  57  48 S7        29.99F
MONTAUK POINT    N/A     78  57  48 SW6       29.98F
$$

NYZ052-065-067-252200-
HUDSON VALLEY

CITY           SKY/WX    TMP DP  RH WIND       PRES   REMARKS
WHITE PLAINS   SUNNY     78  51  38 CALM      29.97F
NEWBURGH       SUNNY     79  57  47 VRB5      29.98F
MONTGOMERY     SUNNY     79  56  45 SE6       29.97F
POUGHKEEPSIE   SUNNY     79  55  43 S5        29.95F
ALBANY         MOSUNNY   80  56  43 W9        29.95F
$$

NJZ001-105-106-008-010-013-015-019>022-104-252200-
NEW JERSEY

CITY           SKY/WX    TMP DP  RH WIND       PRES   REMARKS
NEWARK/LIBERTY MOSUNNY   83  53  35 W8        29.95F
TETERBORO      SUNNY     85  52  32 CALM      29.94F
CALDWELL       SUNNY     81  53  37 CALM      29.97F
MORRISTOWN     MOSUNNY   81  52  36 SE5       29.97F
SOMERVILLE     NOT AVBL
LINDEN         FAIR      83  52  34 CALM      29.97F
SUSSEX         SUNNY     81  52  36 CALM      29.98F
ANDOVER          N/A     79  55  43 N3        29.99F
TRENTON        PTSUNNY   81  53  37 W5        29.96F
MILLVILLE      SUNNY     80  56  43 VRB7      29.98F
ATLANTIC CITY  SUNNY     77  63  61 SE12      29.99F
WRIGHTSTOWN    PTSUNNY   82  61  48 E8        29.94F
TOMS RIVER     SUNNY     79  57  47 SE9       29.98F
BELMAR         SUNNY     79  57  47 S7        29.98F
$$

PAZ047>061-062-071-252200-
EASTERN PENNSYLVANIA

CITY           SKY/WX    TMP DP  RH WIND       PRES   REMARKS
PHILADELPHIA   MOSUNNY   83  52  34 VRB3      29.97F
ALLENTOWN      SUNNY     81  51  35 W5        29.98F
SCRANTON       SUNNY     81  46  29 VRB7      30.00S
$$

CTZ002-004>006-009-010-012-RIZ004-006-007-MAZ004-011-015-252200-
SOUTHERN NEW ENGLAND
 IN CT

CITY           SKY/WX    TMP DP  RH WIND       PRES   REMARKS
BRADLEY INTL   MOSUNNY   83  54  36 N8        29.94F
HARTFORD       SUNNY     81  53  37 VRB3      29.94F
DANBURY        SUNNY     78  54  43 VRB7      29.99F
WTRBRY/OXFORD  SUNNY     77  57  50 NW6       30.01F
BRIDGEPORT     SUNNY     80  58  46 SW14      29.97F
MERIDEN        SUNNY     81  53  37 VRB6      29.96F
NEW HAVEN      MOSUNNY   79  60  52 SW10G16   29.97F
CHESTER        FAIR      77  61  57 S7        29.98S
GROTON         SUNNY     75  61  61 SW12      29.95F
WILLIMANTIC    SUNNY     81  55  40 NW7       29.96F

 IN RI

CITY           SKY/WX    TMP DP  RH WIND       PRES   REMARKS
PROVIDENCE     MOSUNNY   82  55  39 W7        29.95S
BLOCK ISLAND   SUNNY     73  55  53 SW10      29.98S
WESTERLY       SUNNY     78  61  55 SW8       29.97S

 IN MA

CITY           SKY/WX    TMP DP  RH WIND       PRES   REMARKS
BOSTON         MOSUNNY   81  55  40 W9        29.92F
WORCESTER      SUNNY     76  56  49 W9        29.98S
WESTFIELD      SUNNY     81  54  39 W5        29.95F
PROVINCETOWN   SUNNY     75  54  46 CALM      29.94F
NANTUCKET      SUNNY     69  58  67 SE6       29.97S
$$

ANZ330-335-338-340-345-350-353-355-252200-
COASTAL MARINE OBSERVATIONS


STATION/POSITION TIME  SKY/WX   TEMP    WIND        PRES    VSBY  WAVE
                                AIR SEA DIR/SP/G                  HT/PER
                 (UTC)          (F)     (DEG/KT/KT) (MB)    (MI)  (FT/S)
NY HARB ENTRANCE NOT AVBL
4S FIRE IS       NOT AVBL
23SW MTP         2100            73 72              1014.8          2/ 8
HUDSON CANYON    2100            73 75   CALM  /  2 1015.8          3/ 7
EXECUTION ROCKS  2100            76 73  130/  6/  6   N/A
WESTERN LI SOUND 2100            78     170/  4/  4   N/A           0
CENTRAL LI SOUND 2000            74 73  220/ 10/ 12   N/A           1/ 2
EASTERN LI SOUND 2000            72 67  250/ 12/ 14   N/A
ROBBINS REEF     2100            78     170/ 12/ 13   N/A
$$


>>>>>>>>>>>>>>>>>>>>>>>>>>>> KEY <<<<<<<<<<<<<<<<<<<<<<<<<<<
>                                                          <
>     SKY/WX - SKY CONDITION/PRESENT WEATHER               <
>     TMP    - TEMPERATURE IN FAHRENHEIT                   <
>     DP     - DEWPOINT IN FAHRENHEIT                      <
>     RH     - RELATIVE HUMIDITY IN PERCENT                <
>     WIND   - DIRECTION AND SPEED IN MPH                  <
>     PRES   - MEAN SEA LEVEL PRESSURE IN INCHES OF HG     <
>     WCI    - WIND CHILL INDEX                            <
>     VSB    - VISIBILITY IN MILES                         <
>     HX     - HEAT INDEX                                  <
>     TC     - TEMPERATURE IN CELSIUS                      <
>     VRB    - VARIABLE WIND DIRECTION                     <
>                                                          <
>>>>>>>>>>>>>>>>>>>>>>>>>>>> KEY <<<<<<<<<<<<<<<<<<<<<<<<<<<





USA.gov is the U.S. government's official web portal to all federal, state and local government web resources and services.